Year,Month,Day,Hour,Minute,Value (Times are PST for temperature in C)
2014,07,15,00,00,16.30
2014,07,15,00,01,16.30
2014,07,15,00,02,16.30
2014,07,15,00,03,16.30
2014,07,15,00,04,16.30
2014,07,15,00,05,16.30
2014,07,15,00,06,16.30
2014,07,15,00,07,16.20
2014,07,15,00,08,16.20
2014,07,15,00,09,16.20
2014,07,15,00,10,16.10
2014,07,15,00,11,16.10
2014,07,15,00,12,16.10
2014,07,15,00,13,16.10
2014,07,15,00,14,16.10
2014,07,15,00,15,16.00
2014,07,15,00,16,15.90
2014,07,15,00,17,15.90
2014,07,15,00,18,15.80
2014,07,15,00,19,15.80
2014,07,15,00,20,15.80
2014,07,15,00,21,15.80
2014,07,15,00,22,15.80
2014,07,15,00,23,15.80
2014,07,15,00,24,15.80
2014,07,15,00,25,15.80
2014,07,15,00,26,15.80
2014,07,15,00,27,15.80
2014,07,15,00,28,15.80
2014,07,15,00,29,15.80
2014,07,15,00,30,15.90
2014,07,15,00,31,15.90
2014,07,15,00,32,15.90
2014,07,15,00,33,15.90
2014,07,15,00,34,15.90
2014,07,15,00,35,15.90
2014,07,15,00,36,16.10
2014,07,15,00,37,16.10
2014,07,15,00,38,16.10
2014,07,15,00,39,16.10
2014,07,15,00,40,16.10
2014,07,15,00,41,16.10
2014,07,15,00,42,16.20
2014,07,15,00,43,16.20
2014,07,15,00,44,16.20
2014,07,15,00,45,16.20
2014,07,15,00,46,16.20
2014,07,15,00,47,16.30
2014,07,15,00,48,16.30
2014,07,15,00,49,16.30
2014,07,15,00,50,16.30
2014,07,15,00,51,16.30
2014,07,15,00,52,16.30
2014,07,15,00,53,16.30
2014,07,15,00,54,16.30
2014,07,15,00,55,16.30
2014,07,15,00,56,16.30
2014,07,15,00,57,16.30
2014,07,15,00,58,16.30
2014,07,15,00,59,16.30
2014,07,15,01,00,16.30
2014,07,15,01,01,16.30
2014,07,15,01,02,16.30
2014,07,15,01,03,16.30
2014,07,15,01,04,16.30
2014,07,15,01,05,16.30
2014,07,15,01,06,16.30
2014,07,15,01,07,16.30
2014,07,15,01,08,16.40
2014,07,15,01,09,16.40
2014,07,15,01,10,16.40
2014,07,15,01,11,16.40
2014,07,15,01,12,16.40
2014,07,15,01,13,16.40
2014,07,15,01,14,16.30
2014,07,15,01,15,16.30
2014,07,15,01,16,16.20
2014,07,15,01,17,16.20
2014,07,15,01,18,16.20
2014,07,15,01,19,16.10
2014,07,15,01,20,16.10
2014,07,15,01,21,16.10
2014,07,15,01,22,16.10
2014,07,15,01,23,16.10
2014,07,15,01,24,16.10
2014,07,15,01,25,16.10
2014,07,15,01,26,16.10
2014,07,15,01,27,16.10
2014,07,15,01,28,16.10
2014,07,15,01,29,16.10
2014,07,15,01,30,16.10
2014,07,15,01,31,16.10
2014,07,15,01,32,16.10
2014,07,15,01,33,16.00
2014,07,15,01,34,15.90
2014,07,15,01,35,15.90
2014,07,15,01,36,15.90
2014,07,15,01,37,15.90
2014,07,15,01,38,15.90
2014,07,15,01,39,15.90
2014,07,15,01,40,15.90
2014,07,15,01,41,15.90
2014,07,15,01,42,15.90
2014,07,15,01,43,15.90
2014,07,15,01,44,15.90
2014,07,15,01,45,15.90
2014,07,15,01,46,15.90
2014,07,15,01,47,15.90
2014,07,15,01,48,15.90
2014,07,15,01,49,15.90
2014,07,15,01,50,15.80
2014,07,15,01,51,15.80
2014,07,15,01,52,15.80
2014,07,15,01,53,15.80
2014,07,15,01,54,15.80
2014,07,15,01,55,15.80
2014,07,15,01,56,15.80
2014,07,15,01,57,15.80
2014,07,15,01,58,15.80
2014,07,15,01,59,15.80
2014,07,15,02,00,15.80
2014,07,15,02,01,15.70
2014,07,15,02,02,15.70
2014,07,15,02,03,15.70
2014,07,15,02,04,15.60
2014,07,15,02,05,15.60
2014,07,15,02,06,15.60
2014,07,15,02,07,15.60
2014,07,15,02,08,15.50
2014,07,15,02,09,15.50
2014,07,15,02,10,15.50
2014,07,15,02,11,15.50
2014,07,15,02,12,15.40
2014,07,15,02,13,15.40
2014,07,15,02,14,15.30
2014,07,15,02,15,15.30
2014,07,15,02,16,15.30
2014,07,15,02,17,15.30
2014,07,15,02,18,15.20
2014,07,15,02,19,15.20
2014,07,15,02,20,15.20
2014,07,15,02,21,15.20
2014,07,15,02,22,15.10
2014,07,15,02,23,15.10
2014,07,15,02,24,15.10
2014,07,15,02,25,15.10
2014,07,15,02,26,15.00
2014,07,15,02,27,15.00
2014,07,15,02,28,15.00
2014,07,15,02,29,15.00
2014,07,15,02,30,14.90
2014,07,15,02,31,14.90
2014,07,15,02,32,14.90
2014,07,15,02,33,14.80
2014,07,15,02,34,14.80
2014,07,15,02,35,14.80
2014,07,15,02,36,14.80
2014,07,15,02,37,14.70
2014,07,15,02,38,14.70
2014,07,15,02,39,14.60
2014,07,15,02,40,14.60
2014,07,15,02,41,14.60
2014,07,15,02,42,14.50
2014,07,15,02,43,14.50
2014,07,15,02,44,14.40
2014,07,15,02,45,14.40
2014,07,15,02,46,14.40
2014,07,15,02,47,14.30
2014,07,15,02,48,14.30
2014,07,15,02,49,14.20
2014,07,15,02,50,14.20
2014,07,15,02,51,14.20
2014,07,15,02,52,14.20
2014,07,15,02,53,14.20
2014,07,15,02,54,14.20
2014,07,15,02,55,14.20
2014,07,15,02,56,14.20
2014,07,15,02,57,14.10
2014,07,15,02,58,14.10
2014,07,15,02,59,14.10
2014,07,15,03,00,14.10
2014,07,15,03,01,14.10
2014,07,15,03,02,14.10
2014,07,15,03,03,14.00
2014,07,15,03,04,14.10
2014,07,15,03,05,14.10
2014,07,15,03,06,14.00
2014,07,15,03,07,14.00
2014,07,15,03,08,14.00
2014,07,15,03,09,14.00
2014,07,15,03,10,14.00
2014,07,15,03,11,14.00
2014,07,15,03,12,14.00
2014,07,15,03,13,14.00
2014,07,15,03,14,14.00
2014,07,15,03,15,14.00
2014,07,15,03,16,14.00
2014,07,15,03,17,14.00
2014,07,15,03,18,14.00
2014,07,15,03,19,14.00
2014,07,15,03,20,14.00
2014,07,15,03,21,14.00
2014,07,15,03,22,14.00
2014,07,15,03,23,14.00
2014,07,15,03,24,14.10
2014,07,15,03,25,14.10
2014,07,15,03,26,14.20
2014,07,15,03,27,14.20
2014,07,15,03,28,14.20
2014,07,15,03,29,14.20
2014,07,15,03,30,14.20
2014,07,15,03,31,14.30
2014,07,15,03,32,14.30
2014,07,15,03,33,14.30
2014,07,15,03,34,14.30
2014,07,15,03,35,14.30
2014,07,15,03,36,14.30
2014,07,15,03,37,14.30
2014,07,15,03,38,14.30
2014,07,15,03,39,14.30
2014,07,15,03,40,14.30
2014,07,15,03,41,14.30
2014,07,15,03,42,14.30
2014,07,15,03,43,14.30
2014,07,15,03,44,14.30
2014,07,15,03,45,14.30
2014,07,15,03,46,14.30
2014,07,15,03,47,14.30
2014,07,15,03,48,14.30
2014,07,15,03,49,14.30
2014,07,15,03,50,14.40
2014,07,15,03,51,14.40
2014,07,15,03,52,14.30
2014,07,15,03,53,14.30
2014,07,15,03,54,14.30
2014,07,15,03,55,14.30
2014,07,15,03,56,14.30
2014,07,15,03,57,14.30
2014,07,15,03,58,14.30
2014,07,15,03,59,14.30
2014,07,15,04,00,14.30
2014,07,15,04,01,14.30
2014,07,15,04,02,14.30
2014,07,15,04,03,14.30
2014,07,15,04,04,14.30
2014,07,15,04,05,14.20
2014,07,15,04,06,14.20
2014,07,15,04,07,14.20
2014,07,15,04,08,14.20
2014,07,15,04,09,14.20
2014,07,15,04,10,14.10
2014,07,15,04,11,14.10
2014,07,15,04,12,14.00
2014,07,15,04,13,14.00
2014,07,15,04,14,14.00
2014,07,15,04,15,14.00
2014,07,15,04,16,13.90
2014,07,15,04,17,13.90
2014,07,15,04,18,13.90
2014,07,15,04,19,13.90
2014,07,15,04,20,13.90
2014,07,15,04,21,13.90
2014,07,15,04,22,13.80
2014,07,15,04,23,13.80
2014,07,15,04,24,13.80
2014,07,15,04,25,13.80
2014,07,15,04,26,13.80
2014,07,15,04,27,13.80
2014,07,15,04,28,13.70
2014,07,15,04,29,13.70
2014,07,15,04,30,13.70
2014,07,15,04,31,13.70
2014,07,15,04,32,13.70
2014,07,15,04,33,13.70
2014,07,15,04,34,13.70
2014,07,15,04,35,13.70
2014,07,15,04,36,13.70
2014,07,15,04,37,13.70
2014,07,15,04,38,13.70
2014,07,15,04,39,13.70
2014,07,15,04,40,13.70
2014,07,15,04,41,13.70
2014,07,15,04,42,13.70
2014,07,15,04,43,13.70
2014,07,15,04,44,13.70
2014,07,15,04,45,13.70
2014,07,15,04,46,13.70
2014,07,15,04,47,13.80
2014,07,15,04,48,13.80
2014,07,15,04,49,13.80
2014,07,15,04,50,13.80
2014,07,15,04,51,13.90
2014,07,15,04,52,13.90
2014,07,15,04,53,13.90
2014,07,15,04,54,13.90
2014,07,15,04,55,13.90
2014,07,15,04,56,13.90
2014,07,15,04,57,13.90
2014,07,15,04,58,13.90
2014,07,15,04,59,13.90
2014,07,15,05,00,13.90
2014,07,15,05,01,13.90
2014,07,15,05,02,13.90
2014,07,15,05,03,13.80
2014,07,15,05,04,13.80
2014,07,15,05,05,13.80
2014,07,15,05,06,13.80
2014,07,15,05,07,13.80
2014,07,15,05,08,13.70
2014,07,15,05,09,13.70
2014,07,15,05,10,13.70
2014,07,15,05,11,13.70
2014,07,15,05,12,13.70
2014,07,15,05,13,13.70
2014,07,15,05,14,13.70
2014,07,15,05,15,13.60
2014,07,15,05,16,13.60
2014,07,15,05,17,13.60
2014,07,15,05,18,13.60
2014,07,15,05,19,13.60
2014,07,15,05,20,13.50
2014,07,15,05,21,13.50
2014,07,15,05,22,13.50
2014,07,15,05,23,13.50
2014,07,15,05,24,13.50
2014,07,15,05,25,13.50
2014,07,15,05,26,13.40
2014,07,15,05,27,13.40
2014,07,15,05,28,13.40
2014,07,15,05,29,13.40
2014,07,15,05,30,13.40
2014,07,15,05,31,13.40
2014,07,15,05,32,13.40
2014,07,15,05,33,13.40
2014,07,15,05,34,13.30
2014,07,15,05,35,13.30
2014,07,15,05,36,13.30
2014,07,15,05,37,13.30
2014,07,15,05,38,13.30
2014,07,15,05,39,13.30
2014,07,15,05,40,13.30
2014,07,15,05,41,13.30
2014,07,15,05,42,13.30
2014,07,15,05,43,13.30
2014,07,15,05,44,13.30
2014,07,15,05,45,13.30
2014,07,15,05,46,13.30
2014,07,15,05,47,13.30
2014,07,15,05,48,13.30
2014,07,15,05,49,13.30
2014,07,15,05,50,13.30
2014,07,15,05,51,13.30
2014,07,15,05,52,13.30
2014,07,15,05,53,13.30
2014,07,15,05,54,13.30
2014,07,15,05,55,13.30
2014,07,15,05,56,13.30
2014,07,15,05,57,13.30
2014,07,15,05,58,13.30
2014,07,15,05,59,13.30
2014,07,15,06,00,13.30
2014,07,15,06,01,13.30
2014,07,15,06,02,13.30
2014,07,15,06,03,13.30
2014,07,15,06,04,13.30
2014,07,15,06,05,13.30
2014,07,15,06,06,13.30
2014,07,15,06,07,13.30
2014,07,15,06,08,13.30
2014,07,15,06,09,13.40
2014,07,15,06,10,13.40
2014,07,15,06,11,13.40
2014,07,15,06,12,13.40
2014,07,15,06,13,13.50
2014,07,15,06,14,13.50
2014,07,15,06,15,13.60
2014,07,15,06,16,13.60
2014,07,15,06,17,13.60
2014,07,15,06,18,13.70
2014,07,15,06,19,13.70
2014,07,15,06,20,13.60
2014,07,15,06,21,13.60
2014,07,15,06,22,13.60
2014,07,15,06,23,13.60
2014,07,15,06,24,13.60
2014,07,15,06,25,13.60
2014,07,15,06,26,13.60
2014,07,15,06,27,13.60
2014,07,15,06,28,13.60
2014,07,15,06,29,13.60
2014,07,15,06,30,13.70
2014,07,15,06,31,13.70
2014,07,15,06,32,13.70
2014,07,15,06,33,13.70
2014,07,15,06,34,13.70
2014,07,15,06,35,13.70
2014,07,15,06,36,13.70
2014,07,15,06,37,13.80
2014,07,15,06,38,13.90
2014,07,15,06,39,14.00
2014,07,15,06,40,14.00
2014,07,15,06,41,14.00
2014,07,15,06,42,14.00
2014,07,15,06,43,14.00
2014,07,15,06,44,14.10
2014,07,15,06,45,14.10
2014,07,15,06,46,14.10
2014,07,15,06,47,14.10
2014,07,15,06,48,14.10
2014,07,15,06,49,14.10
2014,07,15,06,50,14.10
2014,07,15,06,51,14.20
2014,07,15,06,52,14.20
2014,07,15,06,53,14.20
2014,07,15,06,54,14.20
2014,07,15,06,55,14.20
2014,07,15,06,56,14.20
2014,07,15,06,57,14.30
2014,07,15,06,58,14.30
2014,07,15,06,59,14.30
2014,07,15,07,00,14.30
2014,07,15,07,01,14.30
2014,07,15,07,02,14.40
2014,07,15,07,03,14.40
2014,07,15,07,04,14.40
2014,07,15,07,05,14.50
2014,07,15,07,06,14.50
2014,07,15,07,07,14.50
2014,07,15,07,08,14.60
2014,07,15,07,09,14.70
2014,07,15,07,10,14.80
2014,07,15,07,11,14.90
2014,07,15,07,12,15.00
2014,07,15,07,13,15.10
2014,07,15,07,14,15.20
2014,07,15,07,15,15.30
2014,07,15,07,16,15.30
2014,07,15,07,17,15.40
2014,07,15,07,18,15.50
2014,07,15,07,19,15.50
2014,07,15,07,20,15.60
2014,07,15,07,21,15.70
2014,07,15,07,22,15.70
2014,07,15,07,23,15.80
2014,07,15,07,24,15.80
2014,07,15,07,25,15.90
2014,07,15,07,26,16.10
2014,07,15,07,27,16.10
2014,07,15,07,28,16.10
2014,07,15,07,29,16.20
2014,07,15,07,30,16.20
2014,07,15,07,31,16.30
2014,07,15,07,32,16.40
2014,07,15,07,33,16.40
2014,07,15,07,34,16.40
2014,07,15,07,35,16.40
2014,07,15,07,36,16.50
2014,07,15,07,37,16.60
2014,07,15,07,38,16.60
2014,07,15,07,39,16.70
2014,07,15,07,40,16.70
2014,07,15,07,41,16.70
2014,07,15,07,42,16.70
2014,07,15,07,43,16.70
2014,07,15,07,44,16.70
2014,07,15,07,45,16.60
2014,07,15,07,46,16.60
2014,07,15,07,47,16.60
2014,07,15,07,48,16.50
2014,07,15,07,49,16.50
2014,07,15,07,50,16.60
2014,07,15,07,51,16.60
2014,07,15,07,52,16.60
2014,07,15,07,53,16.60
2014,07,15,07,54,16.60
2014,07,15,07,55,16.60
2014,07,15,07,56,16.60
2014,07,15,07,57,16.70
2014,07,15,07,58,16.70
2014,07,15,07,59,16.70
2014,07,15,08,00,16.70
2014,07,15,08,01,16.70
2014,07,15,08,02,16.80
2014,07,15,08,03,16.80
2014,07,15,08,04,16.80
2014,07,15,08,05,16.80
2014,07,15,08,06,16.80
2014,07,15,08,07,16.90
2014,07,15,08,08,16.80
2014,07,15,08,09,16.80
2014,07,15,08,10,16.70
2014,07,15,08,11,16.60
2014,07,15,08,12,16.40
2014,07,15,08,13,16.40
2014,07,15,08,14,16.30
2014,07,15,08,15,16.30
2014,07,15,08,16,16.30
2014,07,15,08,17,16.20
2014,07,15,08,18,16.20
2014,07,15,08,19,16.20
2014,07,15,08,20,16.10
2014,07,15,08,21,16.10
2014,07,15,08,22,16.10
2014,07,15,08,23,16.00
2014,07,15,08,24,15.90
2014,07,15,08,25,15.90
2014,07,15,08,26,15.80
2014,07,15,08,27,15.80
2014,07,15,08,28,15.70
2014,07,15,08,29,15.60
2014,07,15,08,30,15.60
2014,07,15,08,31,15.50
2014,07,15,08,32,15.50
2014,07,15,08,33,15.50
2014,07,15,08,34,15.50
2014,07,15,08,35,15.50
2014,07,15,08,36,15.50
2014,07,15,08,37,15.50
2014,07,15,08,38,15.50
2014,07,15,08,39,15.50
2014,07,15,08,40,15.40
2014,07,15,08,41,15.40
2014,07,15,08,42,15.40
2014,07,15,08,43,15.50
2014,07,15,08,44,15.50
2014,07,15,08,45,15.50
2014,07,15,08,46,15.60
2014,07,15,08,47,15.60
2014,07,15,08,48,15.70
2014,07,15,08,49,15.80
2014,07,15,08,50,15.80
2014,07,15,08,51,15.80
2014,07,15,08,52,15.80
2014,07,15,08,53,15.90
2014,07,15,08,54,16.10
2014,07,15,08,55,16.20
2014,07,15,08,56,16.30
2014,07,15,08,57,16.40
2014,07,15,08,58,16.40
2014,07,15,08,59,16.40
2014,07,15,09,00,16.50
2014,07,15,09,01,16.60
2014,07,15,09,02,16.70
2014,07,15,09,03,16.70
2014,07,15,09,04,16.70
2014,07,15,09,05,16.70
2014,07,15,09,06,16.70
2014,07,15,09,07,16.80
2014,07,15,09,08,16.80
2014,07,15,09,09,16.90
2014,07,15,09,10,17.10
2014,07,15,09,11,17.30
2014,07,15,09,12,17.50
2014,07,15,09,13,17.70
2014,07,15,09,14,17.90
2014,07,15,09,15,17.90
2014,07,15,09,16,17.90
2014,07,15,09,17,18.00
2014,07,15,09,18,18.20
2014,07,15,09,19,18.20
2014,07,15,09,20,18.10
2014,07,15,09,21,18.10
2014,07,15,09,22,18.10
2014,07,15,09,23,18.20
2014,07,15,09,24,18.20
2014,07,15,09,25,18.20
2014,07,15,09,26,18.20
2014,07,15,09,27,18.20
2014,07,15,09,28,18.20
2014,07,15,09,29,18.20
2014,07,15,09,30,18.20
2014,07,15,09,31,18.20
2014,07,15,09,32,18.10
2014,07,15,09,33,18.10
2014,07,15,09,34,18.10
2014,07,15,09,35,18.20
2014,07,15,09,36,18.40
2014,07,15,09,37,18.40
2014,07,15,09,38,18.50
2014,07,15,09,39,18.60
2014,07,15,09,40,18.60
2014,07,15,09,41,18.50
2014,07,15,09,42,18.40
2014,07,15,09,43,18.20
2014,07,15,09,44,18.20
2014,07,15,09,45,18.20
2014,07,15,09,46,18.20
2014,07,15,09,47,18.10
2014,07,15,09,48,18.10
2014,07,15,09,49,18.10
2014,07,15,09,50,18.10
2014,07,15,09,51,17.90
2014,07,15,09,52,17.90
2014,07,15,09,53,17.90
2014,07,15,09,54,17.80
2014,07,15,09,55,17.70
2014,07,15,09,56,17.60
2014,07,15,09,57,17.50
2014,07,15,09,58,17.40
2014,07,15,09,59,17.40
2014,07,15,10,00,17.40
2014,07,15,10,01,17.30
2014,07,15,10,02,17.20
2014,07,15,10,03,17.20
2014,07,15,10,04,17.10
2014,07,15,10,05,17.10
2014,07,15,10,06,17.10
2014,07,15,10,07,17.10
2014,07,15,10,08,17.10
2014,07,15,10,09,17.10
2014,07,15,10,10,17.10
2014,07,15,10,11,17.10
2014,07,15,10,12,17.10
2014,07,15,10,13,17.20
2014,07,15,10,14,17.20
2014,07,15,10,15,17.20
2014,07,15,10,16,17.20
2014,07,15,10,17,17.30
2014,07,15,10,18,17.30
2014,07,15,10,19,17.30
2014,07,15,10,20,17.40
2014,07,15,10,21,17.50
2014,07,15,10,22,17.60
2014,07,15,10,23,17.60
2014,07,15,10,24,17.80
2014,07,15,10,25,17.90
2014,07,15,10,26,17.90
2014,07,15,10,27,17.90
2014,07,15,10,28,17.90
2014,07,15,10,29,17.80
2014,07,15,10,30,17.70
2014,07,15,10,31,17.80
2014,07,15,10,32,17.90
2014,07,15,10,33,17.90
2014,07,15,10,34,17.90
2014,07,15,10,35,17.90
2014,07,15,10,36,17.90
2014,07,15,10,37,17.80
2014,07,15,10,38,17.80
2014,07,15,10,39,17.70
2014,07,15,10,40,17.70
2014,07,15,10,41,17.70
2014,07,15,10,42,17.80
2014,07,15,10,43,17.70
2014,07,15,10,44,17.70
2014,07,15,10,45,17.70
2014,07,15,10,46,17.70
2014,07,15,10,47,17.70
2014,07,15,10,48,17.70
2014,07,15,10,49,17.70
2014,07,15,10,50,17.60
2014,07,15,10,51,17.60
2014,07,15,10,52,17.50
2014,07,15,10,53,17.50
2014,07,15,10,54,17.50
2014,07,15,10,55,17.50
2014,07,15,10,56,17.40
2014,07,15,10,57,17.30
2014,07,15,10,58,17.20
2014,07,15,10,59,17.20
2014,07,15,11,00,17.10
2014,07,15,11,01,17.00
2014,07,15,11,02,17.00
2014,07,15,11,03,17.00
2014,07,15,11,04,17.00
2014,07,15,11,05,17.00
2014,07,15,11,06,17.00
2014,07,15,11,07,17.00
2014,07,15,11,08,17.00
2014,07,15,11,09,17.00
2014,07,15,11,10,17.10
2014,07,15,11,11,17.10
2014,07,15,11,12,17.00
2014,07,15,11,13,16.90
2014,07,15,11,14,17.00
2014,07,15,11,15,17.00
2014,07,15,11,16,17.00
2014,07,15,11,17,17.10
2014,07,15,11,18,17.20
2014,07,15,11,19,17.30
2014,07,15,11,20,17.30
2014,07,15,11,21,17.40
2014,07,15,11,22,17.50
2014,07,15,11,23,17.50
2014,07,15,11,24,17.60
2014,07,15,11,25,17.70
2014,07,15,11,26,17.70
2014,07,15,11,27,17.70
2014,07,15,11,28,17.70
2014,07,15,11,29,17.70
2014,07,15,11,30,17.80
2014,07,15,11,31,17.80
2014,07,15,11,32,17.80
2014,07,15,11,33,17.90
2014,07,15,11,34,17.90
2014,07,15,11,35,17.90
2014,07,15,11,36,17.90
2014,07,15,11,37,17.90
2014,07,15,11,38,17.90
2014,07,15,11,39,17.80
2014,07,15,11,40,17.80
2014,07,15,11,41,17.80
2014,07,15,11,42,17.80
2014,07,15,11,43,17.80
2014,07,15,11,44,17.90
2014,07,15,11,45,17.90
2014,07,15,11,46,18.00
2014,07,15,11,47,18.00
2014,07,15,11,48,18.10
2014,07,15,11,49,18.10
2014,07,15,11,50,18.10
2014,07,15,11,51,18.20
2014,07,15,11,52,18.20
2014,07,15,11,53,18.20
2014,07,15,11,54,18.20
2014,07,15,11,55,18.20
2014,07,15,11,56,18.20
2014,07,15,11,57,18.20
2014,07,15,11,58,18.10
2014,07,15,11,59,18.00
2014,07,15,12,00,18.00
2014,07,15,12,01,17.90
2014,07,15,12,02,18.00
2014,07,15,12,03,18.10
2014,07,15,12,04,18.20
2014,07,15,12,05,18.20
2014,07,15,12,06,18.20
2014,07,15,12,07,18.40
2014,07,15,12,08,18.60
2014,07,15,12,09,18.70
2014,07,15,12,10,18.80
2014,07,15,12,11,18.90
2014,07,15,12,12,18.80
2014,07,15,12,13,18.80
2014,07,15,12,14,18.80
2014,07,15,12,15,18.90
2014,07,15,12,16,18.90
2014,07,15,12,17,19.00
2014,07,15,12,18,19.10
2014,07,15,12,19,19.20
2014,07,15,12,20,19.30
2014,07,15,12,21,19.40
2014,07,15,12,22,19.50
2014,07,15,12,23,19.70
2014,07,15,12,24,20.00
2014,07,15,12,25,20.20
2014,07,15,12,26,20.30
2014,07,15,12,27,20.30
2014,07,15,12,28,20.50
2014,07,15,12,29,20.50
2014,07,15,12,30,20.70
2014,07,15,12,31,20.80
2014,07,15,12,32,20.90
2014,07,15,12,33,21.00
2014,07,15,12,34,21.00
2014,07,15,12,35,21.00
2014,07,15,12,36,21.00
2014,07,15,12,37,21.00
2014,07,15,12,38,21.10
2014,07,15,12,39,21.10
2014,07,15,12,40,21.10
2014,07,15,12,41,21.10
2014,07,15,12,42,21.00
2014,07,15,12,43,20.90
2014,07,15,12,44,21.00
2014,07,15,12,45,20.90
2014,07,15,12,46,20.90
2014,07,15,12,47,20.90
2014,07,15,12,48,21.00
2014,07,15,12,49,21.00
2014,07,15,12,50,21.00
2014,07,15,12,51,21.00
2014,07,15,12,52,21.00
2014,07,15,12,53,21.00
2014,07,15,12,54,21.00
2014,07,15,12,55,21.00
2014,07,15,12,56,21.10
2014,07,15,12,57,21.00
2014,07,15,12,58,21.00
2014,07,15,12,59,21.00
2014,07,15,13,00,21.00
2014,07,15,13,01,21.10
2014,07,15,13,02,21.10
2014,07,15,13,03,21.00
2014,07,15,13,04,20.90
2014,07,15,13,05,20.70
2014,07,15,13,06,20.60
2014,07,15,13,07,20.60
2014,07,15,13,08,20.40
2014,07,15,13,09,20.30
2014,07,15,13,10,20.30
2014,07,15,13,11,20.40
2014,07,15,13,12,20.40
2014,07,15,13,13,20.30
2014,07,15,13,14,20.30
2014,07,15,13,15,20.20
2014,07,15,13,16,20.20
2014,07,15,13,17,20.20
2014,07,15,13,18,20.20
2014,07,15,13,19,20.20
2014,07,15,13,20,20.20
2014,07,15,13,21,20.20
2014,07,15,13,22,20.20
2014,07,15,13,23,20.20
2014,07,15,13,24,20.30
2014,07,15,13,25,20.30
2014,07,15,13,26,20.40
2014,07,15,13,27,20.40
2014,07,15,13,28,20.50
2014,07,15,13,29,20.60
2014,07,15,13,30,20.80
2014,07,15,13,31,21.00
2014,07,15,13,32,21.10
2014,07,15,13,33,21.30
2014,07,15,13,34,21.30
2014,07,15,13,35,21.30
2014,07,15,13,36,21.30
2014,07,15,13,37,21.30
2014,07,15,13,38,21.30
2014,07,15,13,39,21.30
2014,07,15,13,40,21.30
2014,07,15,13,41,21.30
2014,07,15,13,42,21.30
2014,07,15,13,43,21.50
2014,07,15,13,44,21.60
2014,07,15,13,45,21.60
2014,07,15,13,46,21.60
2014,07,15,13,47,21.60
2014,07,15,13,48,21.60
2014,07,15,13,49,21.50
2014,07,15,13,50,21.40
2014,07,15,13,51,21.30
2014,07,15,13,52,21.30
2014,07,15,13,53,21.30
2014,07,15,13,54,21.30
2014,07,15,13,55,21.30
2014,07,15,13,56,21.40
2014,07,15,13,57,21.50
2014,07,15,13,58,21.60
2014,07,15,13,59,21.60
2014,07,15,14,00,21.80
2014,07,15,14,01,21.90
2014,07,15,14,02,22.00
2014,07,15,14,03,22.00
2014,07,15,14,04,22.20
2014,07,15,14,05,22.20
2014,07,15,14,06,22.30
2014,07,15,14,07,22.30
2014,07,15,14,08,22.30
2014,07,15,14,09,22.30
2014,07,15,14,10,22.30
2014,07,15,14,11,22.30
2014,07,15,14,12,22.20
2014,07,15,14,13,22.20
2014,07,15,14,14,22.10
2014,07,15,14,15,22.10
2014,07,15,14,16,22.00
2014,07,15,14,17,22.00
2014,07,15,14,18,22.10
2014,07,15,14,19,22.20
2014,07,15,14,20,22.20
2014,07,15,14,21,22.30
2014,07,15,14,22,22.50
2014,07,15,14,23,22.60
2014,07,15,14,24,22.70
2014,07,15,14,25,22.70
2014,07,15,14,26,22.60
2014,07,15,14,27,22.60
2014,07,15,14,28,22.80
2014,07,15,14,29,22.90
2014,07,15,14,30,23.00
2014,07,15,14,31,23.20
2014,07,15,14,32,23.30
2014,07,15,14,33,23.30
2014,07,15,14,34,23.30
2014,07,15,14,35,23.40
2014,07,15,14,36,23.40
2014,07,15,14,37,23.40
2014,07,15,14,38,23.40
2014,07,15,14,39,23.40
2014,07,15,14,40,23.40
2014,07,15,14,41,23.50
2014,07,15,14,42,23.40
2014,07,15,14,43,23.40
2014,07,15,14,44,23.30
2014,07,15,14,45,23.30
2014,07,15,14,46,23.30
2014,07,15,14,47,23.20
2014,07,15,14,48,23.10
2014,07,15,14,49,22.90
2014,07,15,14,50,22.80
2014,07,15,14,51,22.60
2014,07,15,14,52,22.50
2014,07,15,14,53,22.30
2014,07,15,14,54,22.20
2014,07,15,14,55,22.00
2014,07,15,14,56,21.90
2014,07,15,14,57,21.70
2014,07,15,14,58,21.60
2014,07,15,14,59,21.50
2014,07,15,15,00,21.40
2014,07,15,15,01,21.20
2014,07,15,15,02,21.00
2014,07,15,15,03,20.80
2014,07,15,15,04,20.60
2014,07,15,15,05,20.40
2014,07,15,15,06,20.30
2014,07,15,15,07,20.20
2014,07,15,15,08,20.20
2014,07,15,15,09,20.20
2014,07,15,15,10,20.20
2014,07,15,15,11,20.20
2014,07,15,15,12,20.20
2014,07,15,15,13,20.30
2014,07,15,15,14,20.40
2014,07,15,15,15,20.50
2014,07,15,15,16,20.60
2014,07,15,15,17,20.70
2014,07,15,15,18,20.80
2014,07,15,15,19,21.00
2014,07,15,15,20,21.00
2014,07,15,15,21,21.10
2014,07,15,15,22,21.10
2014,07,15,15,23,21.20
2014,07,15,15,24,21.20
2014,07,15,15,25,21.30
2014,07,15,15,26,21.30
2014,07,15,15,27,21.10
2014,07,15,15,28,21.00
2014,07,15,15,29,21.00
2014,07,15,15,30,21.10
2014,07,15,15,31,21.20
2014,07,15,15,32,21.30
2014,07,15,15,33,21.30
2014,07,15,15,34,21.30
2014,07,15,15,35,21.30
2014,07,15,15,36,21.20
2014,07,15,15,37,21.20
2014,07,15,15,38,21.20
2014,07,15,15,39,21.20
2014,07,15,15,40,21.10
2014,07,15,15,41,21.10
2014,07,15,15,42,21.00
2014,07,15,15,43,21.00
2014,07,15,15,44,20.90
2014,07,15,15,45,20.90
2014,07,15,15,46,20.80
2014,07,15,15,47,20.70
2014,07,15,15,48,20.40
2014,07,15,15,49,20.10
2014,07,15,15,50,19.90
2014,07,15,15,51,19.70
2014,07,15,15,52,19.50
2014,07,15,15,53,19.40
2014,07,15,15,54,19.30
2014,07,15,15,55,19.20
2014,07,15,15,56,19.20
2014,07,15,15,57,19.10
2014,07,15,15,58,19.10
2014,07,15,15,59,19.20
2014,07,15,16,00,19.10
2014,07,15,16,01,19.20
2014,07,15,16,02,19.20
2014,07,15,16,03,19.40
2014,07,15,16,04,19.60
2014,07,15,16,05,19.80
2014,07,15,16,06,19.70
2014,07,15,16,07,19.70
2014,07,15,16,08,19.60
2014,07,15,16,09,19.50
2014,07,15,16,10,19.50
2014,07,15,16,11,19.50
2014,07,15,16,12,19.50
2014,07,15,16,13,19.50
2014,07,15,16,14,19.50
2014,07,15,16,15,19.40
2014,07,15,16,16,19.30
2014,07,15,16,17,19.20
2014,07,15,16,18,19.10
2014,07,15,16,19,19.20
2014,07,15,16,20,19.10
2014,07,15,16,21,19.10
2014,07,15,16,22,18.90
2014,07,15,16,23,18.90
2014,07,15,16,24,18.70
2014,07,15,16,25,18.50
2014,07,15,16,26,18.50
2014,07,15,16,27,18.50
2014,07,15,16,28,18.40
2014,07,15,16,29,18.40
2014,07,15,16,30,18.40
2014,07,15,16,31,18.50
2014,07,15,16,32,18.60
2014,07,15,16,33,18.70
2014,07,15,16,34,18.90
2014,07,15,16,35,19.00
2014,07,15,16,36,19.20
2014,07,15,16,37,19.30
2014,07,15,16,38,19.50
2014,07,15,16,39,19.70
2014,07,15,16,40,19.80
2014,07,15,16,41,19.80
2014,07,15,16,42,19.80
2014,07,15,16,43,19.70
2014,07,15,16,44,19.60
2014,07,15,16,45,19.50
2014,07,15,16,46,19.40
2014,07,15,16,47,19.30
2014,07,15,16,48,19.10
2014,07,15,16,49,19.10
2014,07,15,16,50,19.10
2014,07,15,16,51,19.20
2014,07,15,16,52,19.40
2014,07,15,16,53,19.50
2014,07,15,16,54,19.60
2014,07,15,16,55,19.70
2014,07,15,16,56,19.80
2014,07,15,16,57,19.60
2014,07,15,16,58,19.60
2014,07,15,16,59,19.70
2014,07,15,17,00,19.60
2014,07,15,17,01,19.50
2014,07,15,17,02,19.50
2014,07,15,17,03,19.50
2014,07,15,17,04,19.50
2014,07,15,17,05,19.40
2014,07,15,17,06,19.30
2014,07,15,17,07,19.20
2014,07,15,17,08,19.00
2014,07,15,17,09,18.90
2014,07,15,17,10,18.90
2014,07,15,17,11,18.90
2014,07,15,17,12,18.90
2014,07,15,17,13,18.90
2014,07,15,17,14,19.10
2014,07,15,17,15,19.30
2014,07,15,17,16,19.40
2014,07,15,17,17,19.40
2014,07,15,17,18,19.40
2014,07,15,17,19,19.40